TimeEST,TemperatureF,Dew PointF,Humidity,Sea Level PressureIn,VisibilityMPH,Wind Direction,Wind SpeedMPH,Gust SpeedMPH,PrecipitationIn,Events,Conditions,WindDirDegrees,DateUTC
12:04 AM,33.8,32.0,93,29.72,4.0,North,6.9,-,0.00,Rain-Snow,Light Rain,10,2013-02-14 05:04:00
12:51 AM,34.0,32.0,92,29.74,4.0,North,6.9,-,0.01,Rain-Snow,Light Rain,10,2013-02-14 05:51:00
1:51 AM,33.8,32.0,93,29.73,4.0,North,5.8,-,N/A,Rain-Snow,Light Rain,10,2013-02-14 06:51:00
2:40 AM,33.8,32.0,93,29.75,5.0,NW,5.8,-,0.00,,Overcast,320,2013-02-14 07:40:00
2:51 AM,34.0,32.0,92,29.77,5.0,NNW,4.6,-,0.00,,Overcast,340,2013-02-14 07:51:00
3:51 AM,33.8,32.0,93,29.78,5.0,NNW,3.5,-,N/A,,Overcast,330,2013-02-14 08:51:00
4:06 AM,33.8,32.0,93,29.80,5.0,NW,3.5,-,N/A,,Overcast,320,2013-02-14 09:06:00
4:51 AM,33.1,30.0,89,29.84,7.0,NNW,3.5,-,N/A,,Clear,330,2013-02-14 09:51:00
5:51 AM,32.0,28.9,88,29.86,10.0,NW,4.6,-,N/A,,Clear,320,2013-02-14 10:51:00
6:51 AM,30.2,28.4,93,29.84,10.0,NW,4.6,-,N/A,,Clear,320,2013-02-14 11:51:00
7:51 AM,32.0,28.9,88,29.93,10.0,SE,3.5,-,N/A,,Clear,140,2013-02-14 12:51:00
8:51 AM,36.0,30.0,79,29.96,10.0,WNW,3.5,-,N/A,,Clear,290,2013-02-14 13:51:00
9:51 AM,37.9,27.0,65,29.97,10.0,NW,6.9,-,N/A,,Clear,320,2013-02-14 14:51:00
10:51 AM,39.0,27.0,62,29.98,10.0,NW,3.5,-,N/A,,Scattered Clouds,320,2013-02-14 15:51:00
11:51 AM,39.9,26.1,58,29.97,10.0,Calm,Calm,-,N/A,,Clear,0,2013-02-14 16:51:00
12:51 PM,42.1,24.1,49,29.96,10.0,Calm,Calm,-,N/A,,Clear,0,2013-02-14 17:51:00
1:51 PM,45.0,24.1,44,29.92,10.0,Variable,5.8,-,N/A,,Clear,0,2013-02-14 18:51:00
2:51 PM,45.0,23.0,42,29.92,10.0,West,9.2,-,N/A,,Clear,260,2013-02-14 19:51:00
3:51 PM,45.0,21.9,40,29.93,10.0,SW,4.6,-,N/A,,Clear,230,2013-02-14 20:51:00
4:51 PM,45.0,21.9,40,29.95,10.0,WSW,9.2,-,N/A,,Clear,240,2013-02-14 21:51:00
5:51 PM,42.1,26.1,53,29.96,10.0,SW,5.8,-,N/A,,Clear,220,2013-02-14 22:51:00
6:51 PM,44.1,30.0,58,29.97,10.0,South,9.2,23.0,N/A,,Clear,170,2013-02-14 23:51:00
7:51 PM,37.9,30.0,73,29.98,10.0,SW,5.8,-,N/A,,Clear,220,2013-02-15 00:51:00
8:51 PM,37.0,30.0,76,29.99,10.0,Calm,Calm,-,N/A,,Clear,0,2013-02-15 01:51:00
9:51 PM,37.0,32.0,82,29.99,10.0,Calm,Calm,-,N/A,,Clear,0,2013-02-15 02:51:00
10:51 PM,36.0,30.9,82,29.99,10.0,SSW,3.5,-,N/A,,Scattered Clouds,200,2013-02-15 03:51:00
11:51 PM,34.0,28.9,82,29.99,9.0,Calm,Calm,-,N/A,,Clear,0,2013-02-15 04:51:00